Temp
72 75 79 80 80 80 80 80 80 79 79 79 79 79 78 78 78 78 78 79 78 79 79 79 79 78 78 78 78 78 78 77 77 76 75 76 77 78 77 76 76 74 77
73 76 79 79 80 80 80 79 78 78 78 79 79 78 78 78 78 78 79 79 79 80 79 78 78 78 77 77 77 77 77 76 75 74 73 73 75 77 77 76 76 75 77
75 78 78 79 79 79 79 78 78 78 78 79 78 78 78 78 78 79 79 79 79 79 78 78 77 77 77 77 76 76 76 76 75 74 73 69 70 77 77 76 76 77 77
76 77 78 78 79 78 78 78 79 79 79 78 78 78 78 78 79 79 79 78 78 78 77 77 76 76 76 76 76 76 76 75 74 73 70 71 74 77 77 77 77 76 75
74 77 78 78 78 78 78 78 79 78 78 77 77 77 78 78 78 79 79 77 77 77 76 76 76 75 75 75 76 76 76 75 73 72 68 67 69 76 77 77 76 76 77
71 73 76 77 78 78 77 78 78 78 77 77 77 77 78 78 78 77 77 76 76 76 76 76 75 75 75 75 75 75 75 74 72 67 67 71 69 77 77 76 76 76 76
72 74 75 77 77 77 77 77 77 77 77 77 77 77 77 77 77 76 75 75 75 75 75 75 75 75 74 74 75 75 74 72 68 65 66 67 70 77 77 75 75 75 75
73 74 75 76 76 77 77 77 77 77 77 77 77 77 77 76 76 75 75 75 75 75 75 75 75 75 74 74 74 74 73 71 69 65 65 66 74 76 76 74 74 74 74
75 74 74 74 76 75 75 75 76 76 76 76 76 76 76 75 75 75 75 75 75 75 75 75 75 74 74 74 73 73 72 70 64 65 69 67 74 76 75 74 73 73 73
73 72 71 72 77 76 73 74 74 75 74 75 74 73 72 72 72 74 73 74 75 75 74 74 74 74 74 73 73 72 70 68 63 65 66 67 75 75 74 74 73 72 72
71 70 70 70 74 74 71 72 73 73 72 72 71 70 69 66 68 69 69 71 73 73 74 73 74 73 72 71 71 71 69 62 62 64 65 72 75 75 74 73 72 72 71
66 69 70 69 69 69 74 70 69 71 69 68 67 66 65 64 65 68 67 69 72 72 72 73 73 72 69 62 62 67 62 61 62 63 65 72 75 74 73 72 71 71 71
66 69 70 70 70 69 71 67 66 67 67 66 66 65 64 66 63 64 63 65 65 66 67 68 66 63 61 60 61 60 62 61 60 63 67 72 74 74 73 72 71 70 70
67 69 70 70 69 68 67 67 66 66 66 66 66 66 64 62 62 62 62 63 63 64 64 64 62 62 61 61 60 60 61 60 60 62 64 70 73 73 73 72 71 70 70
67 69 69 71 69 70 67 67 66 66 66 67 67 68 67 64 64 64 63 62 62 63 63 62 62 61 60 60 61 60 61 60 59 61 62 66 70 72 72 72 71 71 70
67 69 70 70 69 67 68 67 68 68 68 68 69 69 69 68 66 65 65 64 63 63 64 63 63 62 61 60 61 61 61 60 58 60 61 63 68 70 72 72 71 71 71
67 69 70 71 70 68 68 67 66 67 70 69 70 70 70 69 67 67 66 65 65 65 64 62 63 62 60 61 60 64 63 60 58 59 60 60 63 66 69 72 72 71 70
67 69 71 75 72 70 68 69 68 68 68 69 69 69 70 71 68 67 67 67 67 65 65 62 62 60 59 59 59 60 60 59 59 58 58 59 59 62 66 70 71 71 70
65 67 68 70 71 70 68 68 67 68 67 68 68 68 69 70 70 68 68 67 65 65 65 64 61 60 57 57 58 58 57 57 58 60 57 57 57 59 59 65 67 68 69
62 64 65 67 69 68 68 67 66 65 65 66 67 68 69 69 69 66 66 65 65 63 64 61 63 58 59 60 62 60 56 56 56 55 56 59 57 57 57 58 60 61 66
58 59 60 62 62 64 64 64 64 65 65 64 65 67 67 68 68 65 64 62 62 63 65 63 61 59 58 54 54 54 52 54 54 54 54 56 57 58 56 57 57 56 60
56 57 58 59 60 62 62 61 62 63 64 65 64 65 66 66 65 65 64 64 62 65 65 62 60 57 56 54 53 50 54 52 53 55 52 55 55 57 57 56 55 54 54
55 56 58 59 59 60 60 60 59 59 60 62 62 63 64 66 66 64 64 64 63 61 61 60 60 59 60 53 53 54 46 47 47 49 52 53 54 53 56 56 55 55 53
56 56 58 59 59 60 59 58 57 56 55 57 59 61 63 64 64 65 65 63 64 62 62 62 61 60 58 55 53 55 51 50 48 47 48 48 51 53 52 51 54 54 54
57 55 55 57 57 57 57 56 54 54 53 54 54 55 56 59 62 63 64 63 61 62 62 61 60 58 59 60 54 52 51 49 47 46 47 45 48 48 51 54 53 53 55
56 55 54 56 56 55 55 54 53 52 52 52 52 53 53 55 56 58 60 61 62 61 60 60 60 58 59 58 58 58 56 52 54 45 45 45 44 47 49 53 53 52 50
MSLP
1014.88 1014.78 1015.05 1015.47 1015.83 1016.11 1016.26 1016.41 1016.65 1016.84 1017.04 1017.22 1017.52 1017.75 1017.94 1018.01 1018.08 1018.12 1018.12 1018.08 1018.11 1018.22 1018.31 1018.37 1018.43 1018.53 1018.68 1018.78 1018.83 1018.85 1018.95 1019.05 1019.16 1019.27 1019.26 1019.17 1019.13 1018.93 1019.04 1019.05 1018.93 1018.77 1018.78
1014.43 1014.70 1015.12 1015.52 1015.89 1016.14 1016.33 1016.58 1016.89 1017.01 1017.09 1017.37 1017.54 1017.83 1018.14 1018.22 1018.30 1018.33 1018.34 1018.25 1018.29 1018.40 1018.63 1018.75 1018.85 1018.96 1019.04 1019.11 1019.17 1019.24 1019.33 1019.43 1019.53 1019.60 1019.57 1019.46 1019.37 1019.29 1019.28 1019.29 1019.15 1018.98 1019.00
1014.51 1014.78 1015.27 1015.63 1015.95 1016.19 1016.50 1016.84 1016.92 1017.03 1017.23 1017.43 1017.67 1018.07 1018.33 1018.36 1018.39 1018.42 1018.49 1018.45 1018.54 1018.70 1018.89 1019.05 1019.20 1019.30 1019.35 1019.43 1019.48 1019.53 1019.62 1019.74 1019.83 1019.83 1019.81 1019.78 1019.62 1019.53 1019.53 1019.48 1019.43 1019.29 1019.19
1014.35 1014.88 1015.28 1015.68 1016.07 1016.41 1016.72 1016.82 1016.90 1017.05 1017.32 1017.69 1018.08 1018.32 1018.41 1018.40 1018.24 1018.47 1018.65 1018.76 1018.84 1019.01 1019.18 1019.36 1019.51 1019.57 1019.59 1019.66 1019.72 1019.75 1019.81 1019.90 1019.93 1019.95 1020.03 1019.91 1019.62 1019.56 1019.65 1019.60 1019.52 1019.37 1019.26
1014.70 1015.01 1015.32 1015.82 1016.26 1016.58 1016.73 1016.87 1016.98 1017.30 1017.71 1018.02 1018.23 1018.36 1018.46 1018.45 1018.43 1018.55 1018.78 1019.00 1019.20 1019.37 1019.50 1019.65 1019.73 1019.82 1019.83 1019.84 1019.90 1019.97 1020.00 1019.99 1019.95 1020.01 1020.19 1020.03 1019.89 1019.68 1019.72 1019.85 1019.92 1019.62 1019.19
1015.02 1015.29 1015.60 1016.01 1016.50 1016.67 1016.86 1017.02 1017.29 1017.62 1018.03 1018.31 1018.39 1018.46 1018.52 1018.60 1018.65 1018.92 1018.96 1019.25 1019.54 1019.62 1019.70 1019.88 1019.99 1019.99 1020.03 1020.03 1020.04 1020.10 1020.11 1020.07 1020.24 1020.44 1020.33 1020.23 1020.17 1020.04 1020.05 1020.10 1020.06 1020.07 1019.99
1015.24 1015.56 1015.96 1016.27 1016.66 1016.80 1017.02 1017.25 1017.54 1017.88 1018.20 1018.49 1018.57 1018.57 1018.60 1018.81 1019.03 1019.19 1019.35 1019.54 1019.73 1019.79 1019.91 1020.03 1020.12 1020.19 1020.18 1020.15 1020.16 1020.20 1020.23 1020.23 1020.43 1020.51 1020.48 1020.50 1020.29 1020.15 1020.24 1020.45 1020.34 1020.35 1020.34
1015.19 1015.69 1016.06 1016.41 1016.72 1016.98 1017.17 1017.41 1017.72 1018.02 1018.28 1018.52 1018.70 1018.76 1018.85 1019.05 1019.26 1019.44 1019.51 1019.70 1019.82 1019.88 1019.96 1020.06 1020.16 1020.27 1020.28 1020.26 1020.26 1020.27 1020.34 1020.36 1020.53 1020.73 1020.68 1020.67 1020.50 1020.51 1020.68 1020.86 1020.74 1020.69 1020.67
1015.16 1015.60 1016.06 1016.40 1016.69 1017.03 1017.25 1017.56 1017.86 1018.05 1018.20 1018.52 1018.74 1018.87 1019.04 1019.28 1019.48 1019.63 1019.68 1019.78 1019.86 1019.92 1019.99 1020.05 1020.17 1020.31 1020.34 1020.36 1020.36 1020.38 1020.38 1020.41 1020.60 1020.72 1020.65 1020.74 1020.58 1020.59 1020.81 1020.94 1021.13 1021.11 1021.03
1015.56 1015.79 1016.18 1016.45 1016.52 1016.87 1017.30 1017.60 1017.89 1018.04 1018.21 1018.47 1018.69 1018.89 1019.15 1019.43 1019.64 1019.82 1019.89 1019.99 1020.03 1020.09 1020.11 1020.16 1020.20 1020.33 1020.38 1020.37 1020.36 1020.34 1020.37 1020.55 1020.71 1020.63 1020.62 1020.69 1020.68 1020.72 1020.98 1021.08 1021.18 1021.28 1021.38
1016.00 1016.13 1016.28 1016.53 1016.50 1016.83 1017.31 1017.61 1017.90 1018.14 1018.29 1018.48 1018.76 1019.03 1019.28 1019.56 1019.70 1019.94 1020.11 1020.15 1020.30 1020.41 1020.48 1020.44 1020.48 1020.56 1020.61 1020.59 1020.48 1020.43 1020.49 1020.76 1020.84 1020.80 1020.81 1020.72 1020.66 1020.92 1021.06 1021.17 1021.33 1021.51 1021.52
1016.28 1016.37 1016.38 1016.51 1016.70 1017.01 1017.26 1017.63 1017.87 1018.09 1018.35 1018.57 1018.86 1019.21 1019.50 1019.72 1019.85 1019.92 1020.06 1020.18 1020.31 1020.48 1020.53 1020.51 1020.61 1020.77 1020.87 1021.03 1020.92 1020.73 1020.85 1020.87 1020.86 1020.82 1020.73 1020.69 1020.82 1020.95 1021.23 1021.36 1021.52 1021.69 1021.76
1016.20 1016.36 1016.43 1016.42 1016.62 1016.96 1017.16 1017.64 1017.91 1018.10 1018.36 1018.61 1018.90 1019.21 1019.47 1019.72 1019.99 1020.15 1020.25 1020.24 1020.32 1020.37 1020.58 1020.66 1020.75 1020.94 1021.11 1021.19 1021.16 1021.14 1021.06 1021.12 1021.05 1020.99 1020.70 1020.52 1020.61 1020.92 1021.23 1021.40 1021.72 1021.78 1021.95
1016.16 1016.20 1016.26 1016.32 1016.58 1016.80 1017.10 1017.46 1017.71 1018.03 1018.32 1018.59 1018.79 1019.01 1019.43 1019.69 1019.87 1020.05 1020.21 1020.29 1020.36 1020.34 1020.50 1020.52 1020.75 1020.96 1021.10 1021.15 1021.20 1021.17 1021.12 1021.21 1021.20 1021.12 1020.96 1020.71 1020.66 1020.83 1021.05 1021.37 1021.67 1021.81 1021.91
1015.92 1015.99 1015.99 1016.09 1016.47 1016.57 1016.96 1017.18 1017.50 1017.79 1018.06 1018.25 1018.51 1018.68 1018.99 1019.35 1019.53 1019.70 1019.89 1020.10 1020.16 1020.15 1020.27 1020.50 1020.66 1020.85 1020.95 1020.94 1020.90 1020.89 1020.91 1021.04 1021.15 1021.11 1021.02 1020.85 1020.74 1020.84 1021.07 1021.23 1021.53 1021.75 1021.83
1015.44 1015.54 1015.61 1015.81 1015.98 1016.46 1016.71 1016.89 1017.04 1017.33 1017.54 1017.90 1018.09 1018.18 1018.40 1018.74 1019.05 1019.26 1019.46 1019.69 1019.85 1019.86 1019.91 1020.07 1020.17 1020.38 1020.51 1020.68 1020.72 1020.69 1020.69 1020.77 1020.96 1020.94 1021.00 1020.88 1020.74 1020.76 1020.95 1021.13 1021.38 1021.61 1021.83
1015.07 1015.05 1015.23 1015.38 1015.46 1016.05 1016.45 1016.64 1016.82 1016.95 1017.16 1017.50 1017.56 1017.69 1017.89 1018.14 1018.40 1018.63 1018.85 1019.05 1019.16 1019.37 1019.48 1019.73 1019.83 1020.04 1020.25 1020.33 1020.53 1020.36 1020.34 1020.37 1020.59 1020.61 1020.67 1020.72 1020.61 1020.69 1020.71 1020.97 1021.08 1021.32 1021.64
1014.98 1015.01 1014.88 1015.08 1015.34 1015.63 1015.89 1016.03 1016.33 1016.52 1016.75 1017.01 1017.18 1017.28 1017.32 1017.43 1017.75 1018.05 1018.25 1018.38 1018.62 1018.91 1019.10 1019.34 1019.59 1019.85 1019.94 1020.00 1020.01 1020.03 1019.97 1020.12 1020.20 1020.39 1020.54 1020.69 1020.69 1020.65 1020.72 1020.66 1020.84 1021.06 1021.36
1014.57 1014.67 1014.84 1014.85 1015.03 1015.41 1015.59 1015.72 1015.99 1016.17 1016.36 1016.43 1016.61 1016.77 1016.88 1016.90 1016.97 1017.30 1017.52 1017.69 1018.06 1018.38 1018.60 1018.88 1019.13 1019.37 1019.64 1019.80 1019.85 1019.89 1019.81 1019.99 1019.95 1019.96 1020.24 1020.41 1020.39 1020.39 1020.45 1020.52 1020.71 1020.85 1021.05
1014.81 1014.69 1014.80 1014.98 1014.93 1015.06 1015.34 1015.57 1015.88 1016.10 1016.10 1016.20 1016.23 1016.32 1016.40 1016.45 1016.59 1017.02 1016.94 1017.08 1017.43 1017.94 1018.19 1018.41 1018.65 1018.96 1019.11 1019.24 1019.62 1019.66 1019.66 1019.61 1019.67 1019.73 1019.65 1019.81 1020.11 1020.18 1020.18 1020.30 1020.39 1020.61 1020.79
1015.36 1015.39 1015.21 1015.33 1015.37 1015.37 1015.69 1015.99 1016.19 1016.12 1015.89 1015.93 1015.92 1015.80 1015.94 1015.93 1016.10 1016.53 1016.89 1017.18 1017.20 1017.55 1017.67 1017.88 1018.25 1018.69 1018.96 1019.22 1019.89 1019.99 1019.83 1019.62 1019.63 1019.43 1019.45 1019.41 1019.50 1019.68 1019.90 1019.98 1020.17 1020.41 1020.58
1015.79 1015.74 1015.87 1015.93 1015.73 1015.60 1015.63 1015.79 1015.89 1015.92 1015.82 1015.66 1015.44 1015.60 1015.75 1015.81 1016.02 1016.09 1016.22 1016.62 1016.97 1017.32 1017.30 1017.45 1017.79 1018.37 1018.60 1018.93 1019.67 1020.36 1020.12 1019.66 1019.11 1018.77 1018.89 1019.02 1018.91 1019.03 1019.47 1019.76 1019.98 1020.16 1020.37
1016.00 1016.00 1015.91 1015.78 1015.80 1015.96 1016.02 1015.98 1016.04 1016.05 1016.00 1015.88 1015.75 1015.65 1015.37 1015.28 1015.36 1015.62 1015.83 1016.01 1016.30 1016.64 1016.90 1017.06 1017.32 1017.56 1017.92 1018.51 1018.76 1019.38 1020.24 1019.83 1019.40 1018.51 1018.19 1018.30 1018.33 1018.50 1018.57 1018.99 1019.40 1019.77 1020.07
1016.14 1016.11 1016.01 1015.94 1015.90 1015.90 1015.89 1015.94 1016.16 1016.33 1016.50 1016.24 1015.99 1015.75 1015.41 1015.17 1015.16 1015.19 1015.25 1015.42 1015.64 1015.93 1016.29 1016.29 1016.51 1016.82 1017.36 1017.86 1018.51 1018.60 1018.81 1019.11 1019.33 1018.99 1018.48 1018.36 1018.40 1018.41 1018.48 1018.75 1018.89 1019.24 1019.73
1016.08 1016.16 1016.19 1016.12 1016.12 1016.10 1016.01 1016.03 1016.18 1016.33 1016.42 1016.23 1016.10 1015.92 1015.67 1015.26 1014.89 1014.76 1014.82 1014.89 1015.21 1015.33 1015.47 1015.64 1016.01 1016.38 1016.58 1016.88 1017.33 1017.72 1017.99 1018.47 1018.77 1018.95 1018.70 1018.43 1018.69 1017.85 1017.79 1018.08 1018.46 1018.67 1019.01
1016.27 1016.27 1016.35 1016.38 1016.47 1016.39 1016.31 1016.31 1016.42 1016.55 1016.55 1016.44 1016.27 1016.08 1015.75 1015.47 1015.23 1015.02 1014.70 1014.52 1014.50 1014.86 1014.85 1014.94 1015.23 1015.68 1015.92 1016.21 1016.50 1016.99 1017.17 1017.43 1017.65 1018.33 1018.57 1018.25 1018.50 1018.26 1017.99 1017.77 1017.81 1017.97 1018.34
Wind_Speed
8 10 16 17 17 16 16 16 15 15 15 16 15 13 11 10 9 9 9 8 11 15 15 14 14 13 12 12 13 13 15 15 15 13 12 11 12 13 11 10 9 6 11
10 12 17 17 17 16 15 14 14 14 14 15 16 13 9 9 9 9 10 11 15 15 15 14 13 12 11 11 12 13 14 13 13 11 7 7 8 11 11 10 9 8 11
13 12 14 17 16 15 15 14 14 14 15 14 15 13 8 8 7 11 11 11 13 16 14 13 12 11 11 11 12 12 11 9 7 4 5 2 4 9 9 9 8 7 6
13 12 13 18 16 16 14 12 12 14 14 14 13 11 9 7 10 13 12 12 15 15 14 13 12 11 10 9 10 10 9 6 1 3 0 3 4 9 10 9 10 6 2
11 10 12 18 16 16 14 12 13 15 15 13 12 12 11 10 14 14 13 16 14 13 13 12 12 10 9 8 8 8 8 7 7 8 5 5 5 9 10 10 10 15 15
8 7 12 17 16 15 13 13 15 16 14 12 12 13 12 12 15 13 14 12 12 11 12 12 11 10 7 6 5 7 9 10 9 4 5 7 5 13 15 14 13 13 14
10 9 10 16 15 14 14 15 15 16 15 12 12 13 14 13 13 14 13 12 11 12 12 12 11 9 6 5 4 6 8 8 6 4 5 4 4 11 11 10 10 11 10
13 11 11 14 14 13 13 13 15 16 16 14 12 11 12 12 12 12 12 11 11 11 12 11 10 8 6 4 3 5 6 6 5 4 5 4 8 9 9 9 9 9 8
12 11 10 10 13 12 11 11 15 16 17 14 13 11 9 9 9 10 10 11 11 11 11 11 9 8 6 4 3 3 5 7 6 4 5 3 10 11 9 9 8 8 8
9 9 8 8 10 10 7 11 12 12 15 15 13 12 10 9 8 8 6 7 8 9 10 9 8 7 6 5 4 3 5 6 5 4 4 4 10 11 7 8 8 9 9
5 7 6 6 7 7 6 7 10 11 11 12 11 11 9 4 6 6 5 7 6 7 8 7 6 6 4 5 5 4 4 2 3 3 3 9 10 9 8 8 9 8 9
6 6 7 7 7 7 6 6 5 6 5 5 5 6 4 5 4 5 6 8 7 7 8 8 6 5 3 2 3 3 1 1 4 4 3 10 10 9 8 7 8 8 8
6 5 6 8 8 7 6 4 3 3 3 3 6 5 5 4 4 3 2 3 3 6 3 4 2 1 3 2 3 3 2 1 2 3 5 11 11 10 8 9 8 8 7
7 8 7 6 6 7 4 6 5 4 4 4 5 6 4 3 4 4 3 4 4 3 4 4 3 4 4 5 4 4 5 2 3 3 4 10 11 11 10 10 10 9 9
7 7 7 10 7 8 7 5 5 5 5 6 6 7 6 5 5 5 4 4 4 4 4 4 4 4 5 6 5 6 6 4 5 3 3 8 10 12 11 11 11 11 10
7 7 7 7 8 7 7 7 7 5 6 6 6 8 10 7 6 6 6 6 5 5 5 5 6 6 5 5 6 6 6 4 5 6 4 4 10 12 13 12 12 12 11
7 7 8 8 8 9 8 7 4 4 5 6 7 9 10 9 8 8 7 7 7 6 6 4 5 4 4 4 6 5 5 6 5 6 5 4 6 11 13 14 14 14 13
7 7 7 6 8 9 8 7 6 5 5 7 7 6 10 10 8 7 8 8 7 6 6 5 5 4 5 5 5 5 5 5 6 6 5 5 4 4 9 14 16 16 15
8 7 8 7 7 7 6 4 5 5 5 5 4 5 8 9 10 8 8 7 7 6 7 6 5 4 4 4 5 5 5 5 6 4 7 6 6 5 5 10 13 14 15
4 3 1 3 5 6 4 2 2 3 3 3 4 4 7 5 7 6 5 6 6 5 6 4 6 4 4 6 5 5 4 5 4 5 7 7 6 7 7 7 6 6 13
7 8 6 5 4 2 2 2 2 4 3 3 4 8 7 6 6 5 5 4 5 6 8 7 5 6 5 2 2 2 3 5 6 5 5 7 8 9 7 7 5 4 6
4 5 6 6 3 3 2 1 1 2 3 4 3 5 5 5 6 5 6 6 6 7 7 6 6 3 3 6 4 2 3 4 5 8 5 7 9 7 8 8 6 6 6
5 5 5 5 4 2 3 1 1 2 2 2 2 3 5 6 6 7 6 5 6 5 6 6 6 9 8 4 6 4 1 7 1 2 7 7 8 7 8 9 9 8 6
3 4 4 5 5 3 3 3 3 3 3 3 2 2 4 4 6 6 7 7 7 5 7 8 7 8 4 5 2 7 3 2 5 4 2 3 4 6 6 5 8 8 8
4 4 4 5 6 6 6 4 3 2 1 2 2 4 4 5 5 5 6 6 6 6 7 6 5 7 6 8 5 2 6 3 2 3 5 3 4 4 5 8 7 8 9
4 5 5 6 5 6 6 6 5 4 3 3 3 4 4 3 4 6 5 5 6 5 6 6 6 7 7 7 5 7 6 5 9 5 5 6 4 4 3 5 7 7 6
Wind_Direction
159 154 149 145 142 141 137 136 134 131 133 126 119 110 101 98 101 106 112 109 120 111 101 98 97 97 96 94 93 92 87 83 84 82 78 71 75 83 80 77 55 83 98
141 150 150 148 145 143 139 136 143 144 132 123 116 98 106 105 110 113 117 108 118 106 102 101 98 100 100 97 96 95 93 95 96 86 70 70 77 91 88 81 71 74 82
138 148 150 148 144 139 137 146 148 142 130 113 96 107 117 118 119 125 124 109 121 110 107 103 102 103 101 101 101 102 101 102 104 76 89 63 91 104 99 89 82 88 92
135 144 152 143 142 141 144 141 142 113 99 103 115 123 123 122 130 128 122 116 116 112 110 107 108 108 106 104 107 105 96 82 89 217 328 41 53 124 107 92 83 73 118
124 134 138 139 140 145 143 138 114 107 113 123 129 133 130 118 112 127 130 121 114 115 115 114 115 112 108 104 106 102 82 53 91 105 111 82 54 95 110 92 75 60 72
118 117 137 135 144 143 136 121 115 119 125 134 137 139 139 120 109 113 108 106 124 123 123 123 122 119 114 103 92 74 64 72 106 117 102 93 88 87 85 88 79 73 63
130 133 135 139 147 145 142 136 132 134 135 141 143 146 143 133 134 134 126 133 134 134 134 136 136 133 130 122 97 74 68 74 113 112 107 102 100 97 89 71 73 74 72
140 144 147 147 150 152 151 146 149 146 143 145 148 150 151 146 145 146 144 147 147 144 146 147 146 148 151 154 111 81 80 92 115 118 122 124 112 105 98 86 84 78 74
141 144 148 155 159 157 155 154 164 157 150 151 151 152 147 146 157 161 159 161 161 157 155 154 156 162 168 178 151 119 83 120 139 156 140 138 125 115 108 102 90 87 88
141 144 151 160 165 163 159 166 174 160 154 154 156 150 147 153 166 168 167 174 171 168 165 163 166 175 185 195 191 164 98 101 148 152 143 165 139 127 123 113 104 101 97
139 152 155 158 159 147 151 166 166 160 160 158 156 155 154 159 168 169 176 184 177 177 178 177 182 191 202 222 220 199 109 123 157 157 156 158 147 137 135 126 121 118 114
161 176 169 161 150 146 160 155 159 163 162 157 152 161 159 172 178 176 182 189 195 190 193 191 194 198 193 282 302 289 91 122 171 177 173 157 153 148 145 137 132 133 129
179 176 185 177 164 166 165 161 166 161 158 157 166 172 177 174 183 192 201 200 194 202 194 202 197 200 225 247 280 299 293 217 187 205 185 165 163 159 152 150 155 151 146
166 183 195 202 176 180 151 175 179 173 173 174 189 186 172 181 186 192 196 202 199 192 196 192 192 214 232 239 249 268 272 187 194 213 229 179 171 168 166 168 169 169 162
185 187 184 188 184 189 173 178 174 187 183 192 189 197 187 192 196 183 201 199 207 194 197 204 207 223 229 230 237 223 244 197 212 206 211 205 181 177 180 179 182 183 178
204 197 179 176 171 169 188 186 188 185 191 188 198 205 204 194 193 195 198 206 213 204 208 204 205 209 218 207 235 218 232 213 209 196 203 209 193 184 188 192 193 194 191
219 202 196 182 170 168 184 189 181 197 185 197 206 205 204 201 196 191 200 207 213 208 206 203 217 216 228 226 229 216 207 220 203 204 199 205 199 192 192 201 201 200 198
200 219 215 189 182 182 180 186 184 185 183 201 206 210 211 209 194 197 204 211 207 201 206 197 207 220 224 213 214 225 211 209 211 206 201 206 204 198 204 206 206 206 204
198 207 219 212 186 196 199 193 207 211 193 201 196 196 212 215 205 197 208 208 192 202 208 206 214 196 203 217 219 232 224 215 212 193 206 209 208 205 198 215 206 207 206
98 120 126 226 239 205 202 215 207 207 236 225 218 213 216 213 207 218 216 214 184 190 211 197 213 195 200 210 214 228 233 236 220 218 202 205 209 211 205 207 203 206 201
61 74 60 78 13 131 141 168 257 239 241 222 218 224 231 231 218 209 236 243 214 196 222 214 200 207 233 153 71 306 299 260 253 225 212 209 211 212 208 205 201 193 205
71 57 78 97 59 24 69 141 176 206 234 240 248 242 242 233 242 222 211 214 198 227 224 207 202 185 220 176 174 85 280 307 252 231 199 213 215 201 211 216 204 196 195
74 55 51 31 38 101 145 103 11 6 354 336 284 273 253 237 228 220 216 212 209 196 214 219 213 201 233 205 223 176 152 229 338 284 234 214 210 201 206 205 203 203 198
113 96 64 41 31 26 29 78 123 167 196 242 277 297 300 257 246 238 232 217 220 206 218 221 216 215 212 220 215 246 266 179 203 299 286 263 219 217 210 201 200 202 199
102 81 59 57 46 29 37 45 65 36 271 279 277 293 295 307 298 265 238 231 216 212 221 211 208 202 203 227 202 171 215 236 281 209 266 294 290 216 191 199 198 198 195
73 67 60 54 38 26 35 36 41 31 340 342 338 335 331 315 322 352 311 246 234 229 213 210 218 199 207 228 222 222 211 197 226 207 237 238 242 278 241 207 200 196 180